Location: Caracas
(10.5033°N, 66.8422°W)
Time: 17:28:10
(UTC-04:00)

Vanguard 1 Rocket - Visible Passes

Search period start: 16 January 2018 00:00
Search period end: 26 January 2018 00:00
Orbit: 656 x 4222 km, 34.3° (Epoch: 15 January)

Date Brightness Start Highest point End Pass type
(mag) Time Alt. Az. Time Alt. Az. Time Alt. Az.
16 Jan 11.5 02:02:36 10° SSW 02:21:02 24° SSE 02:34:57 10° ESE visible
16 Jan 10.1 04:32:53 10° SW 04:54:38 59° SSE 05:06:09 10° ENE visible
16 Jan 11.5 19:36:23 10° SW 19:41:24 13° SSW 19:47:40 10° S visible
17 Jan 11.8 00:49:48 10° S 01:04:05 17° SSE 01:16:51 10° ESE visible
17 Jan 10.7 03:18:05 10° SSW 03:40:24 43° SSE 03:54:03 10° E visible
17 Jan 9.3 05:51:10 10° WSW 06:10:53 79° NW 06:20:35 10° NE visible
17 Jan 12.0 23:39:43 10° S 23:45:46 11° SSE 23:51:51 10° SSE visible
18 Jan 11.2 02:04:06 10° SSW 02:25:06 31° SSE 02:40:19 10° E visible
18 Jan 9.8 04:35:08 10° SW 04:57:55 74° SE 05:09:46 10° ENE visible
19 Jan 11.6 00:51:07 10° SSW 01:08:44 22° SSE 01:23:52 10° ESE visible
19 Jan 10.4 03:19:58 10° SW 03:43:53 54° SE 03:58:04 10° ENE visible
19 Jan 9.4 05:54:19 10° WSW 06:13:57 64° NW 06:23:50 10° NE visible
19 Jan 11.8 23:39:50 10° S 23:51:11 14° SSE 00:02:28 10° SE visible
20 Jan 10.9 02:05:47 10° SSW 02:28:50 39° SSE 02:45:02 10° E visible
20 Jan 9.7 04:37:40 10° SW 05:01:03 89° SE 05:13:13 10° NE visible
21 Jan 11.4 00:52:39 10° SSW 01:12:52 28° SSE 01:29:48 10° E visible
21 Jan 10.2 03:22:05 10° SW 03:47:09 66° SE 04:01:49 10° ENE visible
21 Jan 9.5 05:57:50 10° WSW 06:17:00 52° NW 06:27:01 10° NE visible
21 Jan 11.7 23:40:56 10° S 23:56:01 18° SSE 00:10:46 10° ESE visible
22 Jan 10.7 02:07:39 10° SSW 02:32:16 48° SE 02:49:15 10° ENE visible
22 Jan 9.6 04:40:32 10° WSW 05:04:04 77° NW 05:16:31 10° NE visible
22 Jan 11.9 22:33:31 10° SSE 22:38:16 11° SSE 22:43:12 10° SE visible
23 Jan 11.1 00:54:22 10° SSW 01:16:35 35° SE 01:34:55 10° E visible
23 Jan 10.0 03:24:28 10° SW 03:50:14 79° SE 04:05:18 10° ENE visible
23 Jan 9.7 06:01:44 10° W 06:20:08 43° NW 06:30:11 10° NE visible
23 Jan 11.5 23:42:23 10° SSW 00:00:16 23° SSE 00:17:36 10° ESE visible
24 Jan 10.5 02:09:43 10° SW 02:35:27 59° SE 02:53:07 10° ENE visible
24 Jan 9.7 04:51:08 24° WSW 05:07:03 64° NW 05:19:43 10° NE visible
24 Jan 11.7 22:32:40 10° S 22:43:18 14° SSE 22:50:33 12° SE visible
25 Jan 11.0 00:56:15 10° SSW 01:29:12 33° ESE 01:39:26 10° E visible
25 Jan 9.9 03:46:44 60° WSW 03:53:11 87° NW 04:08:39 10° NE visible
25 Jan 9.9 06:06:01 10° W 06:23:26 36° NNW 06:33:21 10° NNE visible
